| time (UTC) | temp F | wind direction | speed MPH | gust MPH | rain 1hr in | rain 24hr in | rain mn in | humidity % | barometer mb |
| 20260509211617 | 57 | 151 | 0.0 | 0.0 | 0.00 | 0.25 | 0.25 | 99 | 1011.2 |
| 20260509211114 | 57 | 150 | 0.0 | 1.0 | 0.00 | 0.25 | 0.25 | 99 | 1011.5 |
| 20260509210611 | 57 | 225 | 0.0 | 0.0 | 0.00 | 0.25 | 0.25 | 99 | 1011.5 |
| 20260509210108 | 57 | 280 | 1.0 | 1.0 | 0.00 | 0.25 | 0.25 | 99 | 1011.7 |
| 20260509205602 | 57 | 50 | 0.0 | 0.0 | 0.00 | 0.25 | 0.25 | 99 | 1011.5 |
| 20260509205057 | 57 | 302 | 2.0 | 2.0 | 0.00 | 0.25 | 0.25 | 99 | 1011.8 |
| 20260509204554 | 57 | 203 | 1.0 | 1.0 | 0.00 | 0.25 | 0.25 | 99 | 1011.8 |
| 20260509204050 | 58 | 218 | 0.0 | 0.0 | 0.00 | 0.25 | 0.25 | 99 | 1011.6 |
| 20260509203546 | 57 | 212 | 0.0 | 0.0 | 0.00 | 0.25 | 0.25 | 99 | 1011.6 |
| 20260509203045 | 57 | 176 | 0.0 | 1.0 | 0.00 | 0.25 | 0.25 | 99 | 1011.8 |
| 20260509202539 | 56 | 70 | 1.0 | 1.0 | 0.00 | 0.25 | 0.25 | 99 | 1011.8 |
| 20260509202034 | 56 | 282 | 0.0 | 1.0 | 0.00 | 0.25 | 0.25 | 99 | 1011.8 |
| 20260509201529 | 56 | 249 | 0.0 | 1.0 | 0.00 | 0.25 | 0.25 | 99 | 1011.7 |
| 20260509201022 | 55 | 49 | 2.0 | 2.0 | 0.00 | 0.25 | 0.25 | 99 | 1011.5 |
| 20260509200521 | 56 | 72 | 0.0 | 1.0 | 0.00 | 0.25 | 0.25 | 99 | 1011.7 |
| 20260509200019 | 55 | 66 | 1.0 | 1.0 | 0.00 | 0.25 | 0.25 | 99 | 1011.9 |
| 20260509195514 | 55 | 75 | 0.0 | 1.0 | 0.00 | 0.25 | 0.25 | 99 | 1011.8 |
| 20260509195013 | 55 | 76 | 0.0 | 0.0 | 0.07 | 0.25 | 0.25 | 99 | 1012.2 |
| 20260509194509 | 55 | 66 | 0.0 | 0.0 | 0.07 | 0.25 | 0.25 | 99 | 1012.1 |
| 20260509194007 | 55 | 140 | 0.0 | 0.0 | 0.00 | 0.24 | 0.24 | 99 | 1012.0 |
| 20260509193507 | 55 | 87 | 0.0 | 0.0 | 0.00 | 0.24 | 0.24 | 99 | 1012.1 |
| 20260509193004 | 55 | 175 | 0.0 | 0.0 | 0.00 | 0.24 | 0.24 | 99 | 1012.1 |
| 20260509192500 | 55 | 119 | 1.0 | 1.0 | 0.00 | 0.24 | 0.24 | 99 | 1012.4 |
| 20260509191954 | 56 | 179 | 0.0 | 0.0 | 0.00 | 0.24 | 0.24 | 99 | 1012.2 |
| 20260509191450 | 55 | 198 | 0.0 | 0.0 | 0.05 | 0.24 | 0.24 | 99 | 1012.3 |
| 20260509190946 | 55 | 237 | 0.0 | 1.0 | 0.12 | 0.24 | 0.24 | 99 | 1012.5 |
| 20260509190443 | 55 | 185 | 0.0 | 0.0 | 0.19 | 0.23 | 0.23 | 99 | 1012.8 |
| 20260509185941 | 55 | 186 | 0.0 | 0.0 | 0.19 | 0.22 | 0.22 | 99 | 1012.9 |
| 20260509185438 | 54 | 180 | 0.0 | 0.0 | 0.19 | 0.20 | 0.20 | 99 | 1012.8 |
| 20260509184935 | 54 | 231 | 0.0 | 0.0 | 0.17 | 0.19 | 0.19 | 99 | 1013.0 |
| 20260509184433 | 54 | 298 | 2.0 | 2.0 | 0.24 | 0.17 | 0.17 | 99 | 1013.1 |
| 20260509183929 | 55 | 320 | 1.0 | 1.0 | 0.24 | 0.16 | 0.16 | 99 | 1013.2 |
| 20260509183423 | 55 | 241 | 0.0 | 0.0 | 0.12 | 0.13 | 0.13 | 99 | 1013.2 |
| 20260509182920 | 55 | 276 | 1.0 | 1.0 | 0.05 | 0.11 | 0.11 | 99 | 1013.2 |
| 20260509182416 | 55 | 231 | 0.0 | 0.0 | 0.05 | 0.11 | 0.11 | 99 | 1013.2 |
| 20260509181914 | 55 | 205 | 0.0 | 0.0 | 0.07 | 0.10 | 0.10 | 99 | 1013.0 |
| 20260509181412 | 55 | 237 | 0.0 | 0.0 | 0.07 | 0.10 | 0.10 | 99 | 1013.0 |
| 20260509180908 | 55 | 292 | 1.0 | 1.0 | 0.00 | 0.09 | 0.09 | 99 | 1013.3 |
| 20260509180404 | 55 | 210 | 0.0 | 0.0 | 0.00 | 0.09 | 0.09 | 99 | 1013.2 |
| 20260509175901 | 55 | 288 | 1.0 | 1.0 | 0.07 | 0.09 | 0.09 | 99 | 1013.3 |
| 20260509175357 | 55 | 282 | 0.0 | 0.0 | 0.12 | 0.09 | 0.09 | 99 | 1013.3 |
| 20260509174854 | 55 | 269 | 2.0 | 2.0 | 0.12 | 0.08 | 0.08 | 99 | 1013.3 |
| 20260509174350 | 55 | 290 | 3.0 | 3.0 | 0.12 | 0.07 | 0.07 | 98 | 1013.2 |
| 20260509173846 | 55 | 236 | 3.0 | 3.0 | 0.05 | 0.06 | 0.06 | 98 | 1013.4 |
| 20260509173341 | 56 | 215 | 1.0 | 1.0 | 0.07 | 0.05 | 0.05 | 98 | 1013.1 |
| 20260509172837 | 56 | 284 | 0.0 | 1.0 | 0.07 | 0.05 | 0.05 | 98 | 1013.4 |
| 20260509172334 | 56 | 221 | 2.0 | 2.0 | 0.00 | 0.04 | 0.04 | 98 | 1013.2 |
| 20260509171830 | 56 | 229 | 1.0 | 2.0 | 0.00 | 0.04 | 0.04 | 98 | 1013.1 |
| 20260509171326 | 57 | 219 | 1.0 | 1.0 | 0.00 | 0.04 | 0.04 | 98 | 1012.9 |
| 20260509170823 | 57 | 258 | 1.0 | 1.0 | 0.00 | 0.04 | 0.04 | 98 | 1013.2 |
| 20260509170318 | 57 | 259 | 1.0 | 2.0 | 0.00 | 0.04 | 0.04 | 97 | 1012.9 |
| 20260509165818 | 57 | 186 | 0.0 | 0.0 | 0.05 | 0.04 | 0.04 | 97 | 1012.9 |
| 20260509165313 | 57 | 186 | 0.0 | 0.0 | 0.05 | 0.04 | 0.04 | 97 | 1012.6 |
| 20260509164809 | 56 | 191 | 0.0 | 0.0 | 0.00 | 0.03 | 0.03 | 96 | 1013.0 |
| 20260509164306 | 56 | 306 | 0.0 | 1.0 | 0.00 | 0.03 | 0.03 | 95 | 1012.8 |
| 20260509163802 | 57 | 201 | 1.0 | 1.0 | 0.00 | 0.03 | 0.03 | 95 | 1013.1 |
| 20260509163258 | 57 | 201 | 0.0 | 0.0 | 0.00 | 0.03 | 0.03 | 95 | 1013.1 |
| 20260509162758 | 57 | 222 | 2.0 | 2.0 | 0.00 | 0.03 | 0.03 | 94 | 1013.2 |
| 20260509162251 | 57 | 215 | 2.0 | 2.0 | 0.07 | 0.03 | 0.03 | 93 | 1013.1 |
| 20260509161747 | 57 | 274 | 1.0 | 2.0 | 0.05 | 0.02 | 0.02 | 93 | 1013.0 |
| 20260509161243 | 58 | 324 | 3.0 | 3.0 | 0.12 | 0.02 | 0.02 | 91 | 1013.2 |
| 20260509160739 | 58 | 298 | 3.0 | 3.0 | 0.07 | 0.01 | 0.01 | 90 | 1013.3 |
| 20260509160235 | 59 | 217 | 2.0 | 3.0 | 0.00 | 0.00 | 0.00 | 90 | 1013.4 |
| 20260509155730 | 59 | 291 | 3.0 | 3.0 | 0.00 | 0.00 | 0.00 | 89 | 1013.6 |
| 20260509155227 | 59 | 330 | 4.0 | 6.0 | 0.00 | 0.00 | 0.00 | 89 | 1013.7 |
| 20260509154723 | 59 | 271 | 2.0 | 2.0 | 0.00 | 0.00 | 0.00 | 89 | 1013.7 |
| 20260509154220 | 59 | 251 | 6.0 | 7.0 | 0.00 | 0.00 | 0.00 | 89 | 1013.6 |
| 20260509153718 | 59 | 232 | 2.0 | 2.0 | 0.00 | 0.00 | 0.00 | 89 | 1013.6 |
| 20260509153214 | 59 | 233 | 2.0 | 2.0 | 0.00 | 0.00 | 0.00 | 89 | 1013.8 |
| 20260509152710 | 59 | 231 | 1.0 | 2.0 | 0.00 | 0.00 | 0.00 | 89 | 1013.6 |
| 20260509152207 | 59 | 255 | 4.0 | 5.0 | 0.00 | 0.00 | 0.00 | 88 | 1013.8 |
| 20260509151704 | 59 | 99 | 0.0 | 1.0 | 0.00 | 0.00 | 0.00 | 87 | 1013.6 |
| 20260509151201 | 59 | 249 | 2.0 | 2.0 | 0.00 | 0.00 | 0.00 | 87 | 1013.7 |
| 20260509150659 | 59 | 293 | 4.0 | 5.0 | 0.00 | 0.00 | 0.00 | 87 | 1013.7 |
| 20260509150157 | 59 | 253 | 2.0 | 6.0 | 0.00 | 0.00 | 0.00 | 87 | 1013.7 |
| 20260509145652 | 59 | 259 | 0.0 | 0.0 | 0.00 | 0.00 | 0.00 | 87 | 1013.6 |
| 20260509145148 | 59 | 214 | 1.0 | 1.0 | 0.00 | 0.00 | 0.00 | 87 | 1013.5 |
| 20260509144644 | 59 | 229 | 1.0 | 3.0 | 0.00 | 0.00 | 0.00 | 88 | 1013.5 |
| 20260509144142 | 59 | 252 | 4.0 | 5.0 | 0.00 | 0.00 | 0.00 | 87 | 1013.3 |
| 20260509143639 | 59 | 222 | 1.0 | 1.0 | 0.00 | 0.00 | 0.00 | 87 | 1013.5 |
| 20260509143137 | 58 | 225 | 2.0 | 2.0 | 0.00 | 0.00 | 0.00 | 87 | 1013.5 |
| 20260509142632 | 59 | 196 | 1.0 | 2.0 | 0.00 | 0.00 | 0.00 | 87 | 1013.5 |
| 20260509142129 | 58 | 221 | 0.0 | 1.0 | 0.00 | 0.00 | 0.00 | 87 | 1013.6 |
| 20260509141624 | 58 | 207 | 3.0 | 3.0 | 0.00 | 0.00 | 0.00 | 86 | 1013.5 |
| 20260509141121 | 58 | 177 | 0.0 | 0.0 | 0.00 | 0.00 | 0.00 | 86 | 1013.2 |
| 20260509140618 | 58 | 244 | 4.0 | 5.0 | 0.00 | 0.00 | 0.00 | 86 | 1013.3 |
| 20260509140116 | 58 | 33 | 0.0 | 1.0 | 0.00 | 0.00 | 0.00 | 85 | 1013.2 |
| 20260509135613 | 59 | 230 | 3.0 | 5.0 | 0.00 | 0.00 | 0.00 | 85 | 1013.2 |
| 20260509135111 | 58 | 112 | 1.0 | 1.0 | 0.00 | 0.00 | 0.00 | 85 | 1013.0 |
| 20260509134607 | 58 | 223 | 3.0 | 3.0 | 0.00 | 0.00 | 0.00 | 84 | 1013.0 |
| 20260509134105 | 58 | 75 | 2.0 | 2.0 | 0.00 | 0.00 | 0.00 | 84 | 1013.1 |
| 20260509133601 | 58 | 221 | 0.0 | 1.0 | 0.00 | 0.00 | 0.00 | 85 | 1013.1 |
| 20260509133059 | 57 | 284 | 1.0 | 2.0 | 0.00 | 0.00 | 0.00 | 85 | 1013.3 |
| 20260509132557 | 57 | 195 | 0.0 | 1.0 | 0.00 | 0.00 | 0.00 | 85 | 1013.1 |
| 20260509132055 | 57 | 227 | 2.0 | 2.0 | 0.00 | 0.00 | 0.00 | 84 | 1013.4 |
| 20260509131551 | 57 | 223 | 0.0 | 0.0 | 0.00 | 0.00 | 0.00 | 85 | 1013.0 |
| 20260509131048 | 57 | 245 | 1.0 | 1.0 | 0.00 | 0.00 | 0.00 | 85 | 1013.0 |
| 20260509130544 | 57 | 137 | 0.0 | 0.0 | 0.00 | 0.00 | 0.00 | 85 | 1013.1 |
| 20260509130041 | 57 | 284 | 0.0 | 1.0 | 0.00 | 0.00 | 0.00 | 85 | 1013.1 |
| 20260509125537 | 56 | 285 | 1.0 | 2.0 | 0.00 | 0.00 | 0.00 | 86 | 1013.3 |
| 20260509125034 | 56 | 141 | 0.0 | 1.0 | 0.00 | 0.00 | 0.00 | 86 | 1013.3 |
| 20260509124530 | 55 | 118 | 1.0 | 1.0 | 0.00 | 0.00 | 0.00 | 87 | 1013.0 |
| 20260509124027 | 55 | 118 | 1.0 | 1.0 | 0.00 | 0.00 | 0.00 | 88 | 1013.4 |
| 20260509123525 | 55 | 127 | 0.0 | 0.0 | 0.00 | 0.00 | 0.00 | 88 | 1013.2 |
| 20260509123016 | 55 | 104 | 1.0 | 1.0 | 0.00 | 0.00 | 0.00 | 88 | 1013.2 |
| 20260509122512 | 55 | 127 | 0.0 | 0.0 | 0.00 | 0.00 | 0.00 | 87 | 1013.2 |
| 20260509122009 | 55 | 102 | 0.0 | 1.0 | 0.00 | 0.00 | 0.00 | 88 | 1013.2 |
| 20260509121506 | 55 | 126 | 0.0 | 0.0 | 0.00 | 0.00 | 0.00 | 88 | 1013.2 |
| 20260509121004 | 55 | 116 | 0.0 | 0.0 | 0.00 | 0.00 | 0.00 | 88 | 1013.1 |
| 20260509120502 | 55 | 136 | 0.0 | 0.0 | 0.00 | 0.00 | 0.00 | 88 | 1013.1 |
| 20260509115959 | 54 | 150 | 0.0 | 0.0 | 0.00 | 0.00 | 0.00 | 88 | 1013.2 |
| 20260509115456 | 54 | 131 | 0.0 | 0.0 | 0.00 | 0.00 | 0.00 | 88 | 1013.4 |
| 20260509114954 | 54 | 129 | 0.0 | 0.0 | 0.00 | 0.00 | 0.00 | 88 | 1013.1 |
| 20260509114452 | 54 | 127 | 0.0 | 0.0 | 0.00 | 0.00 | 0.00 | 88 | 1013.3 |
| 20260509113951 | 54 | 90 | 0.0 | 0.0 | 0.00 | 0.00 | 0.00 | 87 | 1013.2 |
| 20260509113448 | 54 | 138 | 0.0 | 0.0 | 0.00 | 0.00 | 0.00 | 87 | 1013.3 |
| 20260509112945 | 54 | 140 | 0.0 | 0.0 | 0.00 | 0.00 | 0.00 | 87 | 1013.0 |
| 20260509112442 | 54 | 61 | 0.0 | 0.0 | 0.00 | 0.00 | 0.00 | 87 | 1013.1 |
| 20260509111938 | 54 | 168 | 0.0 | 0.0 | 0.00 | 0.00 | 0.00 | 86 | 1013.0 |
| 20260509111436 | 54 | 217 | 0.0 | 0.0 | 0.00 | 0.00 | 0.00 | 85 | 1013.2 |
| 20260509110933 | 54 | 270 | 0.0 | 0.0 | 0.00 | 0.00 | 0.00 | 85 | 1013.1 |
| 20260509110429 | 54 | 178 | 0.0 | 0.0 | 0.00 | 0.00 | 0.00 | 85 | 1013.0 |
| 20260509105927 | 54 | 134 | 0.0 | 0.0 | 0.00 | 0.00 | 0.00 | 85 | 1012.9 |
| 20260509105426 | 54 | 197 | 0.0 | 1.0 | 0.00 | 0.00 | 0.00 | 84 | 1013.0 |
| 20260509104922 | 54 | 248 | 0.0 | 0.0 | 0.00 | 0.00 | 0.00 | 84 | 1013.1 |
| 20260509104419 | 54 | 130 | 0.0 | 1.0 | 0.00 | 0.00 | 0.00 | 84 | 1013.0 |
| 20260509103917 | 54 | 143 | 0.0 | 0.0 | 0.00 | 0.00 | 0.00 | 84 | 1013.0 |
| 20260509103413 | 54 | 128 | 0.0 | 1.0 | 0.00 | 0.00 | 0.00 | 84 | 1013.0 |
| 20260509102912 | 53 | 135 | 0.0 | 0.0 | 0.00 | 0.00 | 0.00 | 84 | 1012.8 |
| 20260509102409 | 53 | 137 | 0.0 | 0.0 | 0.00 | 0.00 | 0.00 | 86 | 1012.9 |
| 20260509101905 | 53 | 137 | 0.0 | 0.0 | 0.00 | 0.00 | 0.00 | 85 | 1012.8 |
| 20260509101401 | 53 | 136 | 0.0 | 0.0 | 0.00 | 0.00 | 0.00 | 85 | 1012.6 |
| 20260509100859 | 53 | 139 | 0.0 | 0.0 | 0.00 | 0.00 | 0.00 | 85 | 1012.8 |
| 20260509100356 | 53 | 136 | 0.0 | 0.0 | 0.00 | 0.00 | 0.00 | 85 | 1012.7 |
| 20260509095853 | 53 | 145 | 0.0 | 0.0 | 0.00 | 0.00 | 0.00 | 85 | 1012.9 |
| 20260509095351 | 53 | 144 | 0.0 | 0.0 | 0.00 | 0.00 | 0.00 | 85 | 1012.8 |
| 20260509094847 | 53 | 144 | 0.0 | 0.0 | 0.00 | 0.00 | 0.00 | 85 | 1012.9 |
| 20260509094344 | 54 | 144 | 0.0 | 1.0 | 0.00 | 0.00 | 0.00 | 84 | 1013.3 |
| 20260509093842 | 54 | 142 | 0.0 | 0.0 | 0.00 | 0.00 | 0.00 | 83 | 1013.1 |
| 20260509093339 | 54 | 138 | 0.0 | 0.0 | 0.00 | 0.00 | 0.00 | 82 | 1012.9 |
| 20260509092837 | 55 | 139 | 0.0 | 0.0 | 0.00 | 0.00 | 0.00 | 82 | 1013.0 |
| 20260509092335 | 55 | 132 | 1.0 | 1.0 | 0.00 | 0.00 | 0.00 | 82 | 1012.8 |
| 20260509091832 | 55 | 156 | 0.0 | 0.0 | 0.00 | 0.00 | 0.00 | 81 | 1012.7 |
| 20260509091329 | 55 | 189 | 0.0 | 0.0 | 0.00 | 0.00 | 0.00 | 81 | 1012.8 |
| 20260509090826 | 55 | 149 | 1.0 | 2.0 | 0.00 | 0.00 | 0.00 | 81 | 1012.9 |
| 20260509090323 | 55 | 233 | 0.0 | 0.0 | 0.00 | 0.00 | 0.00 | 80 | 1012.9 |
| 20260509085821 | 55 | 213 | 0.0 | 1.0 | 0.00 | 0.00 | 0.00 | 80 | 1013.1 |
| 20260509085318 | 55 | 142 | 0.0 | 0.0 | 0.00 | 0.00 | 0.00 | 80 | 1013.0 |
| 20260509084814 | 55 | 148 | 1.0 | 1.0 | 0.00 | 0.00 | 0.00 | 80 | 1013.0 |
| 20260509084311 | 55 | 208 | 0.0 | 0.0 | 0.00 | 0.00 | 0.00 | 80 | 1013.3 |
| 20260509083809 | 55 | 218 | 1.0 | 1.0 | 0.00 | 0.00 | 0.00 | 79 | 1013.3 |
| 20260509083306 | 55 | 179 | 0.0 | 0.0 | 0.00 | 0.00 | 0.00 | 79 | 1013.2 |
| 20260509082802 | 56 | 244 | 1.0 | 1.0 | 0.00 | 0.00 | 0.00 | 78 | 1013.1 |
| 20260509082259 | 56 | 302 | 1.0 | 2.0 | 0.00 | 0.00 | 0.00 | 78 | 1013.2 |
| 20260509081756 | 56 | 226 | 0.0 | 0.0 | 0.00 | 0.00 | 0.00 | 78 | 1013.1 |
| 20260509081253 | 56 | 228 | 0.0 | 0.0 | 0.00 | 0.00 | 0.00 | 77 | 1013.2 |
| 20260509080751 | 56 | 210 | 1.0 | 1.0 | 0.00 | 0.00 | 0.00 | 77 | 1013.3 |
| 20260509080248 | 56 | 196 | 1.0 | 2.0 | 0.00 | 0.00 | 0.00 | 77 | 1013.4 |
| 20260509075747 | 56 | 237 | 2.0 | 3.0 | 0.00 | 0.00 | 0.00 | 76 | 1013.1 |
| 20260509075244 | 56 | 206 | 0.0 | 1.0 | 0.00 | 0.00 | 0.00 | 75 | 1013.3 |
| 20260509074741 | 56 | 216 | 0.0 | 0.0 | 0.00 | 0.00 | 0.00 | 75 | 1013.4 |
| 20260509074239 | 56 | 206 | 0.0 | 0.0 | 0.00 | 0.00 | 0.00 | 75 | 1013.3 |
| 20260509073734 | 56 | 163 | 0.0 | 0.0 | 0.00 | 0.00 | 0.00 | 74 | 1013.5 |
| 20260509073231 | 56 | 171 | 0.0 | 0.0 | 0.00 | 0.00 | 0.00 | 74 | 1013.4 |
| 20260509072727 | 56 | 173 | 0.0 | 0.0 | 0.00 | 0.00 | 0.00 | 73 | 1013.3 |
| 20260509072224 | 56 | 166 | 2.0 | 3.0 | 0.00 | 0.00 | 0.00 | 73 | 1013.2 |
| 20260509071721 | 56 | 156 | 0.0 | 0.0 | 0.00 | 0.00 | 0.00 | 74 | 1013.3 |
| 20260509071219 | 56 | 204 | 0.0 | 1.0 | 0.00 | 0.00 | 0.00 | 74 | 1013.4 |
| 20260509070715 | 56 | 121 | 0.0 | 1.0 | 0.00 | 0.00 | 0.00 | 74 | 1013.6 |
| 20260509070211 | 55 | 149 | 0.0 | 0.0 | 0.00 | 0.00 | 0.00 | 74 | 1013.1 |
| 20260509065708 | 54 | 138 | 0.0 | 0.0 | 0.00 | 0.00 | 0.00 | 76 | 1013.1 |
| 20260509065204 | 53 | 136 | 0.0 | 1.0 | 0.00 | 0.00 | 0.00 | 78 | 1013.2 |
| 20260509064701 | 53 | 162 | 0.0 | 0.0 | 0.00 | 0.00 | 0.00 | 80 | 1013.2 |
| 20260509064159 | 53 | 145 | 0.0 | 0.0 | 0.00 | 0.00 | 0.00 | 80 | 1013.1 |
| 20260509063655 | 53 | 135 | 0.0 | 0.0 | 0.00 | 0.00 | 0.00 | 79 | 1013.3 |
| 20260509063151 | 53 | 134 | 0.0 | 0.0 | 0.00 | 0.00 | 0.00 | 79 | 1013.4 |
| 20260509062649 | 53 | 137 | 0.0 | 0.0 | 0.00 | 0.00 | 0.00 | 79 | 1013.6 |
| 20260509062146 | 53 | 137 | 0.0 | 0.0 | 0.00 | 0.00 | 0.00 | 79 | 1013.6 |
| 20260509061643 | 53 | 135 | 0.0 | 0.0 | 0.00 | 0.00 | 0.00 | 78 | 1013.6 |
| 20260509061141 | 54 | 134 | 0.0 | 0.0 | 0.00 | 0.00 | 0.00 | 79 | 1013.6 |
| 20260509060638 | 54 | 126 | 0.0 | 0.0 | 0.00 | 0.00 | 0.00 | 78 | 1013.7 |
| 20260509060134 | 55 | 183 | 0.0 | 0.0 | 0.00 | 0.00 | 0.00 | 77 | 1014.1 |
| 20260509055630 | 56 | 178 | 0.0 | 0.0 | 0.00 | 0.00 | 0.00 | 75 | 1014.0 |
| 20260509055126 | 56 | 148 | 0.0 | 0.0 | 0.00 | 0.00 | 0.00 | 72 | 1013.8 |
| 20260509054623 | 56 | 148 | 0.0 | 0.0 | 0.00 | 0.00 | 0.00 | 72 | 1013.9 |
| 20260509054120 | 56 | 148 | 0.0 | 0.0 | 0.00 | 0.00 | 0.00 | 72 | 1014.0 |
| 20260509053619 | 56 | 155 | 0.0 | 0.0 | 0.00 | 0.00 | 0.00 | 71 | 1014.1 |
| 20260509053115 | 56 | 156 | 0.0 | 0.0 | 0.00 | 0.00 | 0.00 | 71 | 1014.2 |
| 20260509052613 | 56 | 137 | 0.0 | 0.0 | 0.00 | 0.00 | 0.00 | 70 | 1014.1 |
| 20260509052111 | 56 | 146 | 0.0 | 0.0 | 0.00 | 0.00 | 0.00 | 70 | 1014.3 |
| 20260509051608 | 57 | 144 | 0.0 | 0.0 | 0.00 | 0.00 | 0.00 | 66 | 1014.3 |
| 20260509051105 | 56 | 166 | 0.0 | 0.0 | 0.00 | 0.00 | 0.00 | 68 | 1014.4 |
| 20260509050602 | 55 | 198 | 0.0 | 0.0 | 0.00 | 0.00 | 0.00 | 69 | 1014.2 |
| 20260509050058 | 55 | 150 | 0.0 | 0.0 | 0.00 | 0.00 | 0.00 | 73 | 1014.3 |
| 20260509045556 | 55 | 150 | 0.0 | 0.0 | 0.00 | 0.00 | 0.00 | 72 | 1014.3 |
| 20260509045047 | 55 | 141 | 0.0 | 0.0 | 0.00 | 0.00 | 0.00 | 70 | 1013.9 |
| 20260509044544 | 55 | 140 | 0.0 | 0.0 | 0.00 | 0.00 | 0.00 | 74 | 1014.0 |
| 20260509044041 | 55 | 140 | 0.0 | 0.0 | 0.00 | 0.00 | 0.00 | 73 | 1014.0 |
| 20260509043538 | 55 | 140 | 0.0 | 0.0 | 0.00 | 0.00 | 0.00 | 73 | 1014.0 |
| 20260509043033 | 55 | 140 | 0.0 | 0.0 | 0.00 | 0.00 | 0.00 | 73 | 1014.1 |
| 20260509042530 | 56 | 140 | 1.0 | 1.0 | 0.00 | 0.00 | 0.00 | 73 | 1014.4 |
| 20260509042026 | 56 | 143 | 0.0 | 0.0 | 0.00 | 0.00 | 0.00 | 70 | 1014.4 |
| 20260509041523 | 56 | 179 | 0.0 | 0.0 | 0.00 | 0.00 | 0.00 | 67 | 1014.3 |
| 20260509041021 | 56 | 179 | 0.0 | 0.0 | 0.00 | 0.00 | 0.00 | 67 | 1014.5 |
| 20260509040519 | 57 | 179 | 0.0 | 1.0 | 0.00 | 0.00 | 0.00 | 68 | 1014.5 |
| 20260509040015 | 56 | 163 | 0.0 | 0.0 | 0.00 | 0.00 | 0.00 | 68 | 1014.2 |
| 20260509035512 | 57 | 153 | 1.0 | 1.0 | 0.00 | 0.00 | 0.00 | 68 | 1014.3 |
| 20260509035009 | 57 | 155 | 0.0 | 0.0 | 0.00 | 0.00 | 0.00 | 68 | 1014.1 |
| 20260509034507 | 57 | 201 | 0.0 | 0.0 | 0.00 | 0.00 | 0.00 | 64 | 1014.3 |
| 20260509034004 | 58 | 202 | 0.0 | 1.0 | 0.00 | 0.00 | 0.00 | 63 | 1014.6 |
| 20260509033501 | 58 | 222 | 0.0 | 0.0 | 0.00 | 0.00 | 0.00 | 64 | 1014.5 |
| 20260509032957 | 58 | 223 | 0.0 | 0.0 | 0.00 | 0.00 | 0.00 | 63 | 1014.7 |
| 20260509032455 | 59 | 231 | 0.0 | 1.0 | 0.00 | 0.00 | 0.00 | 62 | 1014.8 |
| 20260509031952 | 59 | 191 | 0.0 | 0.0 | 0.00 | 0.00 | 0.00 | 61 | 1014.6 |
| 20260509031449 | 58 | 164 | 0.0 | 0.0 | 0.00 | 0.00 | 0.00 | 60 | 1014.7 |
| 20260509030946 | 58 | 214 | 0.0 | 0.0 | 0.00 | 0.00 | 0.00 | 66 | 1014.8 |
| 20260509030444 | 58 | 216 | 0.0 | 0.0 | 0.00 | 0.00 | 0.00 | 64 | 1014.6 |
| 20260509025941 | 58 | 216 | 0.0 | 0.0 | 0.00 | 0.00 | 0.00 | 62 | 1014.4 |
| 20260509025437 | 58 | 216 | 0.0 | 0.0 | 0.00 | 0.00 | 0.00 | 61 | 1014.4 |
| 20260509024932 | 58 | 216 | 0.0 | 0.0 | 0.00 | 0.00 | 0.00 | 61 | 1014.3 |
| 20260509024428 | 58 | 216 | 0.0 | 0.0 | 0.00 | 0.00 | 0.00 | 60 | 1014.2 |
| 20260509023925 | 58 | 216 | 0.0 | 0.0 | 0.00 | 0.00 | 0.00 | 61 | 1014.4 |
| 20260509023423 | 58 | 216 | 0.0 | 0.0 | 0.00 | 0.00 | 0.00 | 59 | 1014.5 |
| 20260509022919 | 58 | 216 | 0.0 | 0.0 | 0.00 | 0.00 | 0.00 | 59 | 1014.5 |
| 20260509022417 | 58 | 216 | 0.0 | 0.0 | 0.00 | 0.00 | 0.00 | 61 | 1014.6 |
| 20260509021914 | 58 | 216 | 0.0 | 0.0 | 0.00 | 0.00 | 0.00 | 60 | 1014.5 |
| 20260509021411 | 58 | 223 | 0.0 | 0.0 | 0.00 | 0.00 | 0.00 | 58 | 1014.5 |
| 20260509020908 | 58 | 220 | 0.0 | 0.0 | 0.00 | 0.00 | 0.00 | 59 | 1014.5 |
| 20260509020406 | 59 | 220 | 0.0 | 0.0 | 0.00 | 0.00 | 0.00 | 60 | 1014.3 |
| 20260509015903 | 59 | 224 | 0.0 | 0.0 | 0.00 | 0.00 | 0.00 | 57 | 1014.2 |
| 20260509015402 | 59 | 223 | 0.0 | 0.0 | 0.00 | 0.00 | 0.00 | 56 | 1014.1 |
| 20260509014858 | 59 | 230 | 0.0 | 0.0 | 0.00 | 0.00 | 0.00 | 59 | 1014.1 |
| 20260509014355 | 59 | 230 | 0.0 | 0.0 | 0.00 | 0.00 | 0.00 | 59 | 1014.1 |
| 20260509013851 | 59 | 234 | 0.0 | 1.0 | 0.00 | 0.00 | 0.00 | 57 | 1014.2 |
| 20260509013348 | 60 | 232 | 0.0 | 0.0 | 0.00 | 0.00 | 0.00 | 55 | 1014.0 |
| 20260509012844 | 60 | 226 | 0.0 | 0.0 | 0.00 | 0.00 | 0.00 | 55 | 1014.1 |
| 20260509012340 | 60 | 233 | 0.0 | 0.0 | 0.00 | 0.00 | 0.00 | 55 | 1014.0 |
| 20260509011838 | 60 | 234 | 0.0 | 0.0 | 0.00 | 0.00 | 0.00 | 55 | 1013.8 |
| 20260509011335 | 60 | 229 | 2.0 | 2.0 | 0.00 | 0.00 | 0.00 | 55 | 1014.1 |
| 20260509010833 | 61 | 225 | 1.0 | 1.0 | 0.00 | 0.00 | 0.00 | 55 | 1013.7 |
| 20260509010330 | 61 | 226 | 1.0 | 2.0 | 0.00 | 0.00 | 0.00 | 54 | 1013.7 |
| 20260509005822 | 61 | 223 | 0.0 | 0.0 | 0.00 | 0.00 | 0.00 | 54 | 1013.5 |
| 20260509005319 | 61 | 224 | 1.0 | 2.0 | 0.00 | 0.00 | 0.00 | 54 | 1013.3 |
| 20260509004820 | 61 | 226 | 0.0 | 0.0 | 0.00 | 0.00 | 0.00 | 54 | 1013.4 |
| 20260509004316 | 61 | 225 | 0.0 | 0.0 | 0.00 | 0.00 | 0.00 | 54 | 1013.5 |
| 20260509003814 | 62 | 221 | 1.0 | 2.0 | 0.00 | 0.00 | 0.00 | 53 | 1013.2 |
| 20260509003312 | 61 | 239 | 1.0 | 1.0 | 0.00 | 0.00 | 0.00 | 53 | 1013.1 |
| 20260509002809 | 62 | 225 | 1.0 | 1.0 | 0.00 | 0.00 | 0.00 | 53 | 1013.1 |
| 20260509002307 | 62 | 222 | 0.0 | 1.0 | 0.00 | 0.00 | 0.00 | 53 | 1013.0 |
| 20260509001804 | 62 | 220 | 0.0 | 0.0 | 0.00 | 0.00 | 0.00 | 53 | 1012.7 |
| 20260509001259 | 62 | 226 | 1.0 | 1.0 | 0.00 | 0.00 | 0.00 | 52 | 1012.8 |
| 20260509000757 | 62 | 230 | 1.0 | 1.0 | 0.00 | 0.00 | 0.00 | 51 | 1012.8 |
| 20260509000256 | 62 | 235 | 0.0 | 1.0 | 0.00 | 0.00 | 0.00 | 52 | 1013.0 |
| 20260508235751 | 62 | 239 | 1.0 | 2.0 | 0.00 | 0.00 | 0.00 | 52 | 1012.7 |
| 20260508235248 | 62 | 235 | 2.0 | 2.0 | 0.00 | 0.00 | 0.00 | 51 | 1012.7 |
| 20260508234745 | 62 | 220 | 1.0 | 2.0 | 0.00 | 0.00 | 0.00 | 52 | 1012.7 |
| 20260508234235 | 62 | 208 | 1.0 | 2.0 | 0.00 | 0.00 | 0.00 | 52 | 1012.7 |
| 20260508233735 | 62 | 238 | 1.0 | 1.0 | 0.00 | 0.00 | 0.00 | 53 | 1012.6 |
| 20260508233233 | 62 | 252 | 1.0 | 1.0 | 0.00 | 0.00 | 0.00 | 53 | 1012.7 |
| 20260508232730 | 62 | 244 | 1.0 | 1.0 | 0.00 | 0.00 | 0.00 | 51 | 1012.4 |
| 20260508232226 | 62 | 225 | 0.0 | 1.0 | 0.00 | 0.00 | 0.00 | 52 | 1012.5 |
| 20260508231724 | 62 | 220 | 1.0 | 1.0 | 0.00 | 0.00 | 0.00 | 51 | 1012.4 |
| 20260508231221 | 62 | 251 | 1.0 | 2.0 | 0.00 | 0.00 | 0.00 | 51 | 1012.5 |
| 20260508230718 | 63 | 215 | 0.0 | 0.0 | 0.00 | 0.00 | 0.00 | 51 | 1012.6 |
| 20260508230214 | 63 | 262 | 3.0 | 3.0 | 0.00 | 0.00 | 0.00 | 50 | 1012.4 |
| 20260508225712 | 63 | 237 | 1.0 | 1.0 | 0.00 | 0.00 | 0.00 | 50 | 1012.3 |
| 20260508225208 | 63 | 221 | 1.0 | 1.0 | 0.00 | 0.00 | 0.00 | 50 | 1012.3 |
| 20260508224706 | 63 | 252 | 1.0 | 2.0 | 0.00 | 0.00 | 0.00 | 49 | 1012.3 |
| 20260508224203 | 63 | 226 | 2.0 | 2.0 | 0.00 | 0.00 | 0.00 | 50 | 1012.3 |
| 20260508223701 | 63 | 279 | 2.0 | 2.0 | 0.00 | 0.00 | 0.00 | 49 | 1012.5 |
| 20260508223158 | 63 | 303 | 2.0 | 2.0 | 0.00 | 0.00 | 0.00 | 49 | 1012.5 |
| 20260508222655 | 63 | 297 | 3.0 | 5.0 | 0.00 | 0.00 | 0.00 | 48 | 1012.4 |
| 20260508222153 | 63 | 235 | 4.0 | 6.0 | 0.00 | 0.00 | 0.00 | 47 | 1012.3 |
| 20260508221649 | 64 | 325 | 3.0 | 3.0 | 0.00 | 0.00 | 0.00 | 49 | 1012.3 |
| 20260508221144 | 64 | 239 | 3.0 | 3.0 | 0.00 | 0.00 | 0.00 | 48 | 1012.4 |
| 20260508220641 | 64 | 226 | 3.0 | 3.0 | 0.00 | 0.00 | 0.00 | 48 | 1012.3 |
| 20260508220138 | 64 | 298 | 3.0 | 3.0 | 0.00 | 0.00 | 0.00 | 48 | 1012.3 |
| 20260508215634 | 64 | 320 | 4.0 | 5.0 | 0.00 | 0.00 | 0.00 | 48 | 1012.6 |
| 20260508215131 | 64 | 222 | 4.0 | 6.0 | 0.00 | 0.00 | 0.00 | 48 | 1012.4 |
| 20260508214628 | 64 | 235 | 3.0 | 3.0 | 0.00 | 0.00 | 0.00 | 48 | 1012.4 |
| 20260508214125 | 64 | 254 | 1.0 | 1.0 | 0.00 | 0.00 | 0.00 | 49 | 1012.5 |
| 20260508213622 | 64 | 242 | 4.0 | 5.0 | 0.00 | 0.00 | 0.00 | 47 | 1012.6 |
| 20260508213118 | 64 | 236 | 3.0 | 5.0 | 0.00 | 0.00 | 0.00 | 47 | 1012.4 |
| 20260508212614 | 65 | 275 | 7.0 | 10.0 | 0.00 | 0.00 | 0.00 | 47 | 1012.6 |
| 20260508212111 | 65 | 295 | 4.0 | 6.0 | 0.00 | 0.00 | 0.00 | 46 | 1012.4 |